Regional Weather Roundup
Issued by NWS Goodland, KS

Home | Current Version | Previous Version | Graphics & Text | Print | Product List | Glossary On
Versions: 1 2 3 4 5 6 7 8 9 10 11 12 13 14 15 16 17 18 19 20 21 22 23 24 25 26 27 28 29 30 31 32 33 34 35 36 37 38 39 40 41 42 43 44 45 46 47 48 49 50
978
ASUS43 KGLD 120059
RWRGLD

GOODLAND FORECAST AREA HOURLY WEATHER ROUNDUP
NATIONAL WEATHER SERVICE GOODLAND KS
600 PM MST THU FEB 11 2016

...OFFICIAL OBSERVATIONS...

CITY           SKY/WX    TMP DP  RH WIND       PRES   REMARKS
GOODLAND KS    CLOUDY    38  29  70 NW7       30.17R
HILL CITY KS   CLOUDY    35  30  82 CALM      30.13R
IMPERIAL NEB   CLOUDY    45  32  60 W9        30.14R
MCCOOK NEB     CLOUDY    44  32  62 SW8       30.11R
AKRON CO       CLOUDY    43  28  55 N6        30.20R
BURLINGTON CO  CLOUDY    42  28  57 NW6       30.19R
LIMON CO       CLOUDY    33  28  81 N8        30.23R
$$

...UNOFFICIAL OBSERVATIONS...

CITY           SKY/WX    TMP DP  RH WIND       PRES   REMARKS
COLBY KS       CLEAR     39  36  87 W10       30.15R
GOVE KS          N/A     49  32  52 MISG        N/A
LENORA KS        N/A     39  32  76 MISG        N/A
NORTON KS      CLEAR     37  30  75 S5        30.11
SHARON SPRINGS   N/A     48  30  50 NW5         N/A
TRENTON NEB      N/A     44  32  63 MISG        N/A
KIT CARSON CO    N/A     46  30  54 MISG        N/A
YUMA CO          N/A     41  32  69 W5          N/A
$$




USA.gov is the U.S. government's official web portal to all federal, state and local government web resources and services.